www.pogodaiklimat.ru

Погода и климат >> Архив погоды >> Россия >> Мурманская область >> Териберка


АРХИВ ПОГОДЫ в Териберке

Время (UTC), дата Ветер
(напр.,м/с)
 
Видим.   Явления Облачность Т
(С)
Тd
(С)
f
(%)
Тe
(С)
Тes
(С)
Комфортность P
(гПа)
Po
(гПа)
Тmin
(С)
Tmax
(С)
R
(мм)
R24
(мм)
S
(см)
06 12.07 С 10-12
{12}
20 км 10/10 300 м
[Cb cap]
+5.5 +4.3 92 -1 -1 1011.3 1007.6 +5.1 0.3
12 12.07 СВ 9-12
{13}
20 км слаб. ливневой дождь 10/10 300 м
[Cb cap]
+6.3 +4.8 90 +1 +1 1011.9 1008.2
18 12.07 СВ 3 4000 м слаб. ливневой дождь 10/10 300 м
[Cb cap]
+5.6 +5.5 99 +2 +2 1012.9 1009.2 +6.4 7
00 13.07 С 1 4000 м в посл. час ливневой дождь 10/10 150 м
[Cb cap]
+5.5 +5.5 100 +4 +4 1013.7 1010.0
06 13.07 С 2 4000 м дымка {ливн. осадки} 9/9 150 м
[Cb cap]
+6.2 +6.2 100 +4 +4 1014.1 1010.4 +5.4 3
12 13.07 С 3 500 м слаб. ливневой дождь {туман} туман ?/? +6.5 +6.5 100 +3 +3 1014.2 1010.5
18 13.07 С 4 4000 м слаб. ливневой дождь {туман} 10/10 150 м
[Cb cap]
+5.8 +5.8 100 +2 +2 1014.5 1010.8 +6.9 0.7
00 14.07 С 2 4000 м слаб. ливневой дождь 10/10 150 м
[Cb cap]
+5.9 +5.9 100 +3 +3 1014.3 1010.6
06 14.07 С 6 10 км в посл. час ливневой дождь 10/10 150 м
[Cb cap]
+5.9 +5.9 100 +1 +1 1014.3 1010.6 +5.6 1
12 14.07 СЗ 5 20 км 10/10 480 м
[Cb cap]
+6.6 +5.2 91 +2 +2 1015.2 1011.5
18 14.07 С 3 20 км 10/10 600 м
[Cb cap]
+6.7 +4.9 88 +4 +4 1015.3 1011.6 +7.4
00 15.07 СЗ 1 20 км 10/10 600 м
[Cb cap]
+6.2 +5.5 95 +5 +5 1015.2 1011.5
06 15.07 С 1 20 км 10/10 600 м
[Cb cap]
+7.0 +3.5 78 +6 +6 1015.6 1011.9 +6.0
12 15.07 СВ 3 20 км 10/10 600 м
[Cb cap]
+7.6 +4.2 79 +5 +5 1016.4 1012.6
18 15.07 В 6 20 км 9/9 600 м
[Cb cap]
+7.0 +4.2 82 +3 +3 1017.0 1013.3 +7.8
00 16.07 В 3 20 км слаб. ливневой дождь 10/10 400 м
[Cb cap]
+6.4 +5.1 91 +3 +3 1016.7 1013.0
06 16.07 СВ 5 10 км слаб. ливневой дождь 10/10 300 м
[Cb cap]
+6.4 +6.1 98 +2 +2 1016.6 1012.9 +6.3 6
12 16.07 В 6 10 км слаб. ливневой дождь 10/10 300 м
[Cb cap]
+6.7 +6.4 98 +2 +2 1015.6 1011.9
18 16.07 СВ 7 20 км слаб. ливневой дождь 10/10 300 м
[Cb cap]
+6.4 +6.0 97 +1 +1 1015.5 1011.8 +6.8 9
00 17.07 СЗ 5 20 км слаб. ливневой дождь 10/10 400 м
[Cb cap]
+6.3 +6.2 99 +2 +2 1013.7 1010.0
06 17.07 СЗ 9-11
{13}
20 км слаб. ливневой дождь 10/10 300 м
[Cb cap]
+6.5 +6.1 97 +1 +1 1009.8 1006.1 +5.8 10
12 17.07 З 9-12
{16}
20 км слаб. ливневой дождь 10/10 300 м
[Cb cap]
+7.9 +6.5 91 +3 +3 1010.6 1006.9
18 17.07 ЮЗ 5 20 км {ливн. осадки} 8/3 300 м
[Cb cap Ac trans Ci sp]
+10.2 +7.4 83 +7 +7 1013.6 1009.9 +10.3 3
00 18.07 ЮЗ 7-9
{10}
20 км 6/3 600 м
[Sc Ac cast Ci sp]
+10.5 +7.6 82 +7 +7 1016.4 1012.7
06 18.07 В 3 20 км 6/3 300 м
[Cb cap Ac trans Ci sp]
+12.2 +8.6 79 +11 +13 1019.5 1015.8 +9.8
12 18.07 В 6 20 км 9/8 600 м
[Cb cap Ac trans]
+12.7 +8.0 73 +10 +11 1020.9 1017.2
18 18.07 ЮВ 5-7
{10}
20 км 9/8 600 м
[Cb cap Ac trans]
+13.1 +5.3 59 +11 +11 1021.0 1017.3 +14.8
00 19.07 ЮВ 4-6
{10}
20 км 9/8 600 м
[Cb cap Ac trans]
+9.9 +5.7 75 +7 +7 1021.8 1018.1

 

Местоположение метеостанции Териберка (Мурманская область, Россия): широта 69.20 долгота 35.12 высота над уровнем моря 30 м.

В архиве по умолчанию представлена погода в Териберке за последнюю неделю. Архивные данные за месяц целиком и за предыдущие месяцы, начиная с января 2011 года, Вы можете получить, выбрав интересующий диапазон дат из раскрывающегося списка и нажав кнопку "Ввод!".


*Определитесь, кто Вы:
робот инопланетянин человек

Внимание! Время в таблицах - всемирное. Для получения местного времени необходимо прибавить поправку, которая равна 3 ч.

Смотрите также архив погоды в соседних городах и на ближайших метеорологических станциях:

Погода в Дальних Зеленцах (Мурманская область, Россия) (39 км)
Погода в Туманной (Мурманская область, Россия) (41 км)
Погода в Полярном (Мурманская область, Россия) (65 км)
Погода в Североморске (Мурманская область, Россия) (67 км)
Погода в Мурманске (Мурманская область, Россия) (86 км)
Погода в Ура-Губе (Мурманская область, Россия) (92 км)
Погода в Цып-Наволоке (Мурманская область, Россия) (98 км)
Погода в Мурманске аэропорт (Мурманская область, Россия) (114 км)
Погода в Пулозере (Мурманская область, Россия) (120 км)
Погода в Ловозере (Мурманская область, Россия) (134 км)

Пояснения к столбцам:

Ветер - указаны скорость ветра в м/с - средняя за 10 мин, порывы в срок и между сроками (в фигурных скобках) и направление, откуда дует ветер: С - северный, СВ - северо-восточный, В - восточный, ЮВ - юго-восточный, Ю - южный, ЮЗ - юго-западный, З - западный, СЗ - северо-западный.
Видимость - горизонтальная дальность видимости в метрах или километрах. При видимости от 1 до 10 км при отсутствии осадков обычно наблюдается дымка, при ухудшении видимости до 1 км и менее - туман. В сухую погоду видимость может ухудшаться дымом, пылью или мглою.
Явления - указаны атмосферные явления, наблюдавшиеся в срок или в последний час перед сроком; фигурными скобками обозначены явления, наблюдавшиеся между сроками (за 1-3 часа до срока); квадратными скобками обозначены град или гололедные отложения с указанием их диаметра в мм.
Облачность - указаны через наклонную черту общая и нижняя облачность в баллах и высота нижней границы облаков в метрах; квадратными скобками обозначены формы облаков: Ci - перистые, Cs - перисто-слоистые, Cc - перисто-кучевые, Ac - высококучевые, As - высокослоистые, Sc - слоисто-кучевые, Ns - слоисто-дождевые, Cu - кучевые, Cb - кучево-дождевые. Подробнее классификацию облаков см. в Атласе облаков (PDF).
T - Температура воздуха - температура, измеренная на высоте 2 м над землей.
Td - Температура точки росы - температура, при понижении до которой содержащийся в воздухе водяной пар достигнет насыщения.
f - Относительная влажность воздуха - влажноcть воздуха, измеренная на высоте 2 м над землей.
Te - Эффективная температура - температура, которую ощущает одетый по сезону человек в тени. Характеристика душности погоды. При расчете учитывается влияние влажности воздуха и скорости ветра на теплоощущения человека.
Tes - Эффективная температура на солнце - температура, которую ощущает человек, с поправкой на солнечный нагрев. Характеристика знойности погоды. Зависит от высоты солнца над горизонтом, облачности и скорости ветра. Ночью, в пасмурную погоду, а также при ветре 12 м/с и более поправка равна нулю.
P - Атмосферное давление - приведенное к уровню моря атмосферное давление.
Po - Атмосферное давление - измеренное на уровне метеостанции атмосферное давление.
Tmin - Минимальная температура - минимум температуры воздуха на высоте 2 м над землей.
Tmax - Максимальная температура - максимум температуры воздуха на высоте 2 м над землей.
R - Количество осадков - Количество выпавших осадков за период времени, мм. При наведении курсора мыши на число - период времени, за который выпало указанное количество осадков.
R24 - Количество осадков - Количество выпавших осадков за 24 часа, мм.
S - Снежный покров - Высота снежного покрова, см. При наведении курсора мыши на число - состояние снежного покрова и степень покрытия местности в баллах.